Home > Weather > Wellington > Past weeks

Flag for New Zealand Weather for the Past 2 Weeks in Wellington, New Zealand

Now
64 °F

Broken clouds.


Feels Like: 64 °F
Forecast: 61 / 65 °F
Wind: 23 mph from North

Location: Wellington Airport

Current Time: May 2, 2016 at 11:25:58 AM

Latest Report: May 2, 2016 at 11:00 AM


Visibility: N/A

Pressure: 30.07 "Hg

Humidity: 68%

Dew Point: 54 °F

Location of WellingtonLocation

Historic Weather in Wellington — Graph

°F

Wellington Temperature Yesterday

Maximum temperature yesterday: 66 °F (at 1:00 PM)
Minimum temperature yesterday: 52 °F (at 12:00 AM)
Average temperature yesterday: 60 °F

High & Low Weather Summary for the Past Weeks

 TemperatureHumidityPressure
High68 °F (Apr 17, 1:30 PM)100% (Apr 21, 1:00 AM)30.48 "Hg (Apr 21, 1:00 AM)
Low46 °F (Apr 19, 3:30 AM)46% (Apr 26, 11:30 AM)29.77 "Hg (Apr 24, 1:00 AM)
Average59 °F76%30.17 "Hg
* Reported Apr 17 10:00 AM — May 2 10:00 AM, Wellington, Weather by CustomWeather, © 2016

Note: Actual official high and low records may vary slightly from our data, if they occured in-between our weather recording intervals... More about our weather records

Advertising

Wellington Weather History for the Previous 24 Hours

Scroll right to see more
 ConditionsComfort  
Time TempWeatherWind HumidityBarometerVisibility
10:00 AM
Mon, May 2
64 °FPartly sunny.20 mph73%30.09 "HgN/A
9:30 AM63 °FPartly sunny.23 mph77%30.09 "HgN/A
9:00 AM63 °FMostly cloudy.21 mph73%30.12 "HgN/A
8:30 AM63 °FPartly sunny.18 mph77%30.12 "HgN/A
8:00 AM63 °FPartly sunny.22 mph73%30.12 "HgN/A
7:30 AM61 °FPartly sunny.17 mph83%30.12 "HgN/A
7:00 AM61 °FPartly sunny.22 mph83%30.12 "HgN/A
6:30 AM61 °FPartly sunny.20 mph83%30.09 "HgN/A
6:00 AM61 °FPartly cloudy.20 mph83%30.12 "HgN/A
5:30 AM61 °FPartly cloudy.22 mph83%30.12 "HgN/A
5:00 AM61 °FPartly cloudy.22 mph83%30.12 "HgN/A
4:30 AM61 °FOvercast.22 mph83%30.12 "HgN/A
4:00 AM61 °FPassing clouds.21 mph83%30.12 "HgN/A
3:30 AM61 °FPartly cloudy.21 mph77%30.12 "HgN/A
3:00 AM61 °FPassing clouds.22 mph77%30.15 "HgN/A
2:30 AM61 °FPassing clouds.22 mph72%30.15 "HgN/A
2:00 AM61 °FOvercast.18 mph77%30.15 "HgN/A
1:30 AM61 °FPassing clouds.22 mph77%30.18 "HgN/A
1:00 AM61 °FPartly cloudy.21 mph77%30.18 "HgN/A
12:30 AM61 °FPassing clouds.20 mph77%30.18 "HgN/A
12:00 AM61 °FOvercast.20 mph77%30.18 "HgN/A
11:30 PM
Sun, May 1
61 °FPassing clouds.20 mph77%30.18 "HgN/A
11:00 PM61 °FPartly cloudy.20 mph83%30.18 "HgN/A
10:30 PM61 °FPartly cloudy.20 mph77%30.18 "HgN/A
10:00 PM61 °FPartly cloudy.20 mph83%30.18 "HgN/A
9:30 PM61 °FPassing clouds.21 mph83%30.18 "HgN/A
9:00 PM61 °FPassing clouds.18 mph77%30.18 "HgN/A
8:30 PM61 °FPartly cloudy.17 mph83%30.18 "HgN/A
8:00 PM63 °FPassing clouds.16 mph77%30.18 "HgN/A
7:30 PM63 °FPassing clouds.20 mph77%30.21 "HgN/A
7:00 PM63 °FPassing clouds.18 mph77%30.21 "HgN/A
6:30 PM63 °FPartly cloudy.22 mph77%30.18 "HgN/A
6:00 PM63 °FPassing clouds.21 mph77%30.21 "HgN/A
5:30 PM63 °FPassing clouds.20 mph77%30.18 "HgN/A
5:00 PM63 °FPassing clouds.18 mph77%30.18 "HgN/A
4:30 PM64 °FMild.21 mph68%30.18 "HgN/A
4:00 PM64 °FMild.23 mph68%30.18 "HgN/A
3:30 PM64 °FMild.25 mph73%30.18 "HgN/A
3:00 PM64 °FMild.25 mph68%30.21 "HgN/A
2:30 PM66 °FMild.24 mph64%30.21 "HgN/A
2:00 PM66 °FMild.24 mph68%30.21 "HgN/A
1:30 PM66 °FPartly sunny.24 mph68%30.24 "HgN/A
1:00 PM66 °FPartly sunny.25 mph68%30.24 "HgN/A
12:30 PM64 °FBroken clouds.24 mph73%30.27 "HgN/A
12:00 PM64 °FPassing clouds.28 mph73%30.27 "HgN/A
11:30 AM64 °FPartly sunny.24 mph73%30.27 "HgN/A
11:00 AM63 °FPartly sunny.21 mph73%30.27 "HgN/A
Weather by CustomWeather, © 2016

See weather overviewHow to use our weather pages